Lansing, MI

10:58 PM EST on December 12, 2017 (GMT -0500)
Capital City

Weather History for KLAN - December, 2012

Change the Weather History Date:

Saturday, December 22, 2012

  Actual Average Record
Temperature  
Mean Temperature 30 °F 26 °F  
Max Temperature 34 °F 32 °F 57 °F (1957)
Min Temperature 25 °F 20 °F -15 °F (1870)
Degree Days  
Heating Degree Days 35 39  
Month to date heating degree days 602 780  
Since 1 July heating degree days 2009 2194  
Cooling Degree Days 0 0  
Month to date cooling degree days 0 0  
Year to date cooling degree days 940 625  
Moisture  
Dew Point 20 °F    
Average Humidity 71    
Maximum Humidity 81    
Minimum Humidity 61    
Precipitation  
Precipitation 0.00 in 0.06 in 0.80 in (1920)
Month to date precipitation 1.85 1.36  
Year to date precipitation 28.28 31.26  
Snow  
Snow 0.00 in 0.40 in 9.00 in (1878)
Month to date snowfall 2.5 8.8  
Since 1 July snowfall 3.0 12.6  
Snow Depth 1.00 in    
Sea Level Pressure  
Sea Level Pressure 30.05 in    
Wind  
Wind Speed 12 mph (West)    
Max Wind Speed 23 mph    
Max Gust Speed 33 mph    
Visibility 10 miles    
Events      
T = Trace of Precipitation, MM = Missing Value Source: NWS Daily Summary

Daily Weather History Graph

Daily Weather History Graph

Search for Another Location

Airport or City:

Trip Planner

Search our weather history database for the weather conditions in past years. The results will help you decide how hot, cold, wet, or windy it might be!

Date:

Astronomy

Dec. 22, 2012 Rise Set
Actual Time 8:06 AM EST 5:08 PM EST
Civil Twilight 7:34 AM EST 5:40 PM EST
Nautical Twilight 6:58 AM EST 6:16 PM EST
Astronomical Twilight 6:23 AM EST 6:50 PM EST
Moon 1:29 PM EST (12/22) 2:46 AM EST (12/22)
Length of Visible Light 10h 06m
Length of Day
9h 01m
Waxing Gibbous, 73% of the Moon is Illuminated
Dec 22
Waxing Gibbous
Dec 28
Full
Jan 4
Last Quarter
Jan 11
New
Jan 18
First Quarter

Hourly Weather History & Observations

Time (EST) Temp. Windchill Dew Point Humidity Pressure Visibility Wind Dir Wind Speed Gust Speed Precip Events Conditions
12:51 AM 30.2 °F 18.1 °F 21.2 °F 69% 29.96 in 10.0 mi NW 18.4 mph 29.9 mph N/A   Overcast
12:53 AM 30.9 °F 19.4 °F 21.0 °F 67% 29.99 in 10.0 mi NNW 17.3 mph 29.9 mph N/A   Overcast
1:53 AM 30.0 °F 19.5 °F 21.0 °F 69% 30.01 in 10.0 mi NW 13.8 mph 28.8 mph N/A   Overcast
2:53 AM 28.9 °F 17.3 °F 21.0 °F 72% 30.03 in 10.0 mi WNW 16.1 mph 27.6 mph N/A   Overcast
3:53 AM 28.4 °F 16.6 °F 19.4 °F 69% 30.02 in 10.0 mi WNW 16.1 mph - N/A   Overcast
4:53 AM 28.0 °F 16.5 °F 19.9 °F 72% 30.05 in 10.0 mi WNW 15.0 mph 20.7 mph N/A   Overcast
5:53 AM 27.0 °F 16.1 °F 19.0 °F 72% 30.06 in 10.0 mi WNW 12.7 mph 24.2 mph N/A   Overcast
6:53 AM 27.0 °F 16.1 °F 18.0 °F 69% 30.07 in 10.0 mi NW 12.7 mph 21.9 mph N/A   Overcast
7:53 AM 27.0 °F 16.7 °F 19.0 °F 72% 30.09 in 10.0 mi WNW 11.5 mph - N/A   Mostly Cloudy
8:53 AM 27.0 °F 16.7 °F 18.0 °F 69% 30.12 in 10.0 mi WNW 11.5 mph - N/A   Overcast
9:53 AM 27.0 °F 16.7 °F 19.0 °F 72% 30.12 in 10.0 mi West 11.5 mph 18.4 mph N/A   Overcast
10:53 AM 28.0 °F 19.3 °F 19.0 °F 69% 30.12 in 10.0 mi NW 9.2 mph - N/A   Overcast
11:53 AM 28.9 °F 18.6 °F 19.9 °F 69% 30.11 in 10.0 mi West 12.7 mph - N/A   Overcast
12:25 PM 30.2 °F 20.8 °F 19.4 °F 64% 30.06 in 10.0 mi WNW 11.5 mph - N/A   Mostly Cloudy
12:53 PM 30.9 °F 22.2 °F 19.9 °F 64% 30.09 in 10.0 mi West 10.4 mph - N/A   Mostly Cloudy
1:53 PM 32.0 °F 21.6 °F 21.0 °F 64% 30.07 in 10.0 mi West 15.0 mph - N/A   Mostly Cloudy
2:53 PM 33.1 °F 23.4 °F 21.0 °F 61% 30.06 in 10.0 mi West 13.8 mph - N/A   Mostly Cloudy
3:53 PM 34.0 °F 23.8 °F 21.0 °F 59% 30.05 in 10.0 mi West 16.1 mph - N/A   Scattered Clouds
4:53 PM 33.1 °F 24.4 °F 21.0 °F 61% 30.05 in 10.0 mi West 11.5 mph - N/A   Mostly Cloudy
5:53 PM 30.9 °F 23.5 °F 21.0 °F 67% 30.06 in 10.0 mi West 8.1 mph - N/A   Scattered Clouds
6:53 PM 30.0 °F 23.2 °F 21.0 °F 69% 30.05 in 10.0 mi WSW 6.9 mph - N/A   Scattered Clouds
7:53 PM 30.0 °F 21.7 °F 21.9 °F 72% 30.06 in 10.0 mi WSW 9.2 mph - N/A   Partly Cloudy
8:53 PM 28.9 °F 19.8 °F 21.9 °F 75% 30.04 in 10.0 mi WSW 10.4 mph - N/A   Scattered Clouds
9:53 PM 27.0 °F 18.0 °F 21.0 °F 78% 30.03 in 10.0 mi SW 9.2 mph - N/A   Mostly Cloudy
10:53 PM 26.1 °F 15.6 °F 21.0 °F 81% 30.01 in 10.0 mi SSW 11.5 mph - N/A   Partly Cloudy
11:53 PM 25.0 °F 16.3 °F 19.9 °F 81% 30.01 in 10.0 mi SW 8.1 mph - N/A   Clear